This is the latest recevied weather packets stored in our database for station/object WC4PEM-1. If no packets are shown the sender has not sent any weather packets the latest 10 day(s).
| Time | Temp. | Humidity | Pressure | Rain* | Wind** | Luminosity | Snow |
|---|---|---|---|---|---|---|---|
| 1777749811 | 28.89° C | 68% | 1009.8 hPa | 0 mm | - | 167 W/m² | - |
| 1777749511 | 28.89° C | 68% | 1009.6 hPa | 0 mm | - | 171 W/m² | - |
| 1777749211 | 28.89° C | 68% | 1009.8 hPa | 0 mm | - | 156 W/m² | - |
| 1777748911 | 28.89° C | 68% | 1009.9 hPa | 0 mm | - | 146 W/m² | - |
| 1777748611 | 28.89° C | 67% | 1010 hPa | 0 mm | - | 107 W/m² | - |
| 1777748503 | 28.89° C | 68% | 1010 hPa | 0 mm | - | 93 W/m² | - |
| 1777748311 | 28.89° C | 68% | 1010 hPa | 0 mm | - | 93 W/m² | - |
| 1777748074 | 30° C | 64% | 1010 hPa | 0 mm | - | 167 W/m² | - |
| 1777748011 | 28.89° C | 66% | 1010 hPa | 0 mm | - | 123 W/m² | - |
| 1777747711 | 28.89° C | 66% | 1009.9 hPa | 0 mm | - | 135 W/m² | - |
| 1777747411 | 29.44° C | 65% | 1009.9 hPa | 0 mm | - | 137 W/m² | - |
| 1777747112 | 29.44° C | 65% | 1009.9 hPa | 0 mm | - | 139 W/m² | - |
| 1777746811 | 30° C | 64% | 1009.9 hPa | 0 mm | - | 139 W/m² | - |
| 1777746511 | 30° C | 64% | 1010 hPa | 0 mm | - | 167 W/m² | - |
| 1777746211 | 30° C | 64% | 1010.1 hPa | 0 mm | - | 186 W/m² | - |
| 1777745912 | 30° C | 65% | 1010.1 hPa | 0 mm | - | 230 W/m² | - |
| 1777745612 | 29.44° C | 65% | 1010.1 hPa | 0 mm | - | 220 W/m² | - |
| 1777745312 | 30° C | 64% | 1009.9 hPa | 0 mm | - | 258 W/m² | - |
| 1777745012 | 30° C | 63% | 1010 hPa | 0 mm | - | 290 W/m² | - |
| 1777744748 | 30° C | 64% | 1009.9 hPa | 0 mm | - | 316 W/m² | - |
| 1777744712 | 30° C | 64% | 1009.9 hPa | 0 mm | - | 316 W/m² | - |
| 1777744412 | 29.44° C | 64% | 1009.8 hPa | 0 mm | - | 320 W/m² | - |
| 1777744112 | 30° C | 64% | 1009.9 hPa | 0 mm | - | 195 W/m² | - |
| 1777743975 | 30° C | 63% | 1010 hPa | 0 mm | - | 271 W/m² | - |
| 1777743812 | 30° C | 63% | 1010 hPa | 0 mm | - | 190 W/m² | - |
* Rain latest hour (hover to see other rain measurements)
** Current wind speed in m/s (hover to see current wind gust speed)